GEFSNE_500_meanwind_090.txt.gz
Wind_Speed
46 46 46 44 42 40 39 38 37 36 35 37 37 38 40 41 43 44 45 46 47 48 48 48 48 47 46 45 43 41 39 38 36 34 33 31 30 30
46 46 44 42 40 38 37 37 37 37 37 38 38 40 41 42 44 45 46 46 47 48 48 48 47 47 46 44 41 40 38 36 34 33 32 31 30 29
45 43 41 39 39 39 38 38 38 38 38 39 40 41 42 43 45 45 46 46 47 47 47 46 46 45 44 42 40 38 36 35 34 32 31 30 29 28
42 41 41 41 41 40 39 39 40 40 40 40 41 42 43 44 44 44 45 45 46 46 45 45 44 43 42 40 38 37 35 33 32 30 29 28 26 26
42 42 41 41 40 40 40 40 41 41 41 41 41 42 43 44 44 44 45 45 45 44 44 43 42 42 40 38 36 34 32 31 30 28 26 25 24 24
42 41 41 41 41 41 41 42 42 41 42 42 42 43 43 43 43 43 43 43 43 43 42 42 41 39 37 35 33 31 30 29 28 26 24 23 22 22
43 43 43 43 43 43 43 43 43 43 43 43 43 43 43 43 43 42 42 42 42 42 41 39 37 36 34 32 31 29 28 26 25 24 23 22 22 22
46 45 45 45 45 44 44 44 44 44 44 44 44 43 43 42 41 41 41 41 41 40 38 36 35 33 32 30 29 28 27 25 24 23 22 22 22 22
48 47 47 46 46 46 46 46 46 46 45 45 44 43 42 41 40 40 40 40 39 38 35 34 32 31 29 28 28 27 26 25 24 23 22 22 21 22
48 48 48 48 47 47 47 47 47 47 45 44 44 42 41 40 40 39 39 38 37 35 33 32 30 29 28 27 26 25 25 24 23 22 22 21 21 21
50 50 50 49 48 48 47 47 47 46 45 44 42 41 40 39 39 39 38 36 35 34 32 31 29 28 27 26 25 24 23 23 22 22 22 21 22 22
51 50 50 49 48 47 47 46 45 44 43 42 41 40 39 39 38 38 37 35 34 33 31 30 29 27 26 25 24 23 23 23 23 23 23 23 23 23
50 49 48 48 47 46 46 45 44 44 43 42 40 40 39 38 37 37 35 34 33 32 30 29 28 27 26 25 24 24 23 23 23 23 23 23 24 24
49 49 48 47 47 46 46 45 44 43 42 41 40 39 38 37 37 36 34 33 32 31 29 28 27 26 25 25 24 24 24 23 23 23 23 24 24 25
50 49 48 47 46 46 45 44 43 42 41 41 40 39 38 37 36 35 34 33 31 30 29 28 27 26 25 24 24 24 24 24 24 24 24 25 25 25
50 49 49 47 46 45 44 43 42 42 41 40 39 39 38 37 35 34 33 32 31 30 29 27 27 26 26 26 25 25 25 25 25 25 26 26 27 27
50 50 48 47 46 45 44 43 42 41 40 40 39 38 37 36 35 33 32 32 31 30 29 28 27 27 27 26 26 26 26 26 26 27 27 28 28 28
50 48 47 46 45 44 42 42 41 41 40 39 38 37 36 35 34 33 32 32 30 29 29 28 28 27 27 27 27 27 28 28 28 28 28 28 29 30
48 47 46 45 44 43 42 41 40 40 39 39 38 37 36 35 34 33 32 32 31 30 29 29 29 28 28 28 28 28 29 29 29 29 29 29 30 30
46 45 45 44 43 42 41 41 40 39 39 38 37 36 35 35 34 33 33 32 31 31 30 30 29 29 28 28 29 29 30 29 30 30 30 31 32 33
45 44 44 43 42 41 40 40 39 39 38 37 36 36 35 34 34 33 33 32 32 31 30 30 30 29 29 30 30 31 31 31 31 31 32 32 33 34
44 43 42 42 41 41 40 39 39 38 37 37 36 36 35 35 34 33 33 32 32 32 31 31 30 30 31 31 32 32 33 33 33 33 33 34 34 35
43 43 42 41 40 40 39 39 38 37 36 35 35 35 35 35 34 34 33 33 32 32 32 32 31 31 32 32 33 34 34 34 34 34 35 36 36 37

GEFSNE_500_meanwind_096.txt.gz
Wind_Speed
48 47 47 46 45 44 44 45 45 46 46 46 45 44 43 41 40 40 40 40 40 40 41 43 44 45 46 46 46 46 46 46 44 43 40 38 35 33
49 50 50 49 49 49 48 48 48 48 48 47 46 45 42 40 40 41 41 41 41 41 43 44 45 46 46 46 46 46 46 45 43 41 39 36 34 32
49 50 50 50 51 51 51 50 50 49 48 48 47 44 43 42 42 41 42 42 42 43 44 44 45 45 45 45 45 45 45 43 41 39 36 34 32 30
49 50 51 51 52 52 52 51 50 49 48 47 45 45 45 44 43 43 43 43 43 43 44 44 44 45 45 45 44 44 43 41 39 37 34 32 30 27
50 50 51 52 51 51 51 51 49 48 48 46 45 45 45 45 45 44 43 43 43 43 44 44 44 44 44 44 43 42 41 39 37 34 31 29 28 26
51 52 52 53 52 51 50 49 48 48 48 47 46 46 46 45 44 43 43 43 43 43 44 44 44 43 44 43 42 40 39 37 34 32 30 27 26 25
52 52 52 52 51 50 49 49 49 48 48 47 47 46 45 44 43 43 43 44 44 44 45 44 44 43 42 41 40 38 36 34 32 30 28 26 25 24
50 51 50 50 50 50 50 50 49 49 49 48 48 46 45 45 44 44 44 45 45 45 45 44 43 42 41 40 38 36 34 32 30 28 26 25 23 22
51 51 51 51 51 51 50 49 49 49 48 49 48 48 47 46 45 45 45 45 45 45 44 43 42 41 39 37 35 34 32 30 28 27 25 24 22 21
54 53 53 53 53 53 52 52 51 51 50 50 49 50 49 48 47 47 46 46 45 44 43 42 41 39 37 35 34 32 30 29 27 26 24 23 22 21
56 56 56 55 56 56 55 54 54 53 53 53 52 50 50 49 48 48 46 45 44 44 42 41 39 37 36 34 32 31 29 27 26 25 24 23 22 21
58 58 58 58 58 58 57 56 56 55 54 53 52 51 50 49 48 47 46 44 44 43 41 39 37 36 34 33 31 30 28 27 26 25 24 23 22 22
59 60 60 59 59 58 58 57 56 55 54 53 52 51 50 49 47 46 45 44 43 42 40 38 36 34 33 32 30 29 28 27 26 25 24 23 23 22
60 60 61 61 61 60 59 58 57 56 55 53 52 50 49 47 46 45 44 43 42 40 39 36 35 33 32 31 30 29 28 27 26 25 24 23 23 23
61 60 60 60 60 59 58 57 56 55 54 52 50 49 48 47 45 44 44 42 41 39 38 36 34 33 32 31 30 29 28 27 26 25 24 24 24 24
61 61 60 58 58 57 56 56 55 54 52 51 50 49 48 46 45 44 42 41 40 39 37 36 35 34 32 31 30 29 28 27 27 26 25 25 25 25
58 58 59 58 57 56 55 54 54 53 52 51 51 49 48 47 45 43 42 40 39 38 37 36 34 33 32 31 30 29 29 28 27 27 26 26 26 26
56 56 57 56 56 55 54 53 53 52 51 50 50 49 47 45 44 43 42 40 38 37 36 35 34 33 32 31 31 30 29 28 28 27 27 27 27 27
54 54 55 55 54 54 54 53 52 51 50 49 49 47 46 45 44 43 41 40 39 37 35 35 34 33 32 32 31 31 30 29 28 28 28 28 28 28
52 52 52 52 52 52 52 51 51 50 49 48 47 46 45 44 43 42 41 39 38 36 35 35 34 33 33 32 32 31 30 29 29 29 29 29 29 29
48 49 49 49 50 49 49 49 49 48 48 47 46 44 43 42 42 41 39 38 36 35 35 35 35 34 33 32 32 31 31 30 30 30 30 30 30 30
45 46 46 46 47 47 46 46 46 46 45 44 43 42 41 40 39 38 37 37 36 36 36 35 35 34 33 33 32 32 32 31 31 31 31 31 31 31
40 42 42 43 45 45 44 44 44 44 43 42 40 39 39 38 38 37 36 36 35 35 35 35 34 34 34 33 33 32 32 32 32 32 32 32 32 33

GEFSNE_500_meanwind_102.txt.gz
Wind_Speed
53 53 52 53 53 52 52 51 50 49 48 47 47 45 44 44 44 44 44 44 44 44 44 44 44 43 43 42 41 41 42 43 43 44 44 43 42 42
51 52 53 54 54 54 54 52 51 51 48 46 46 45 45 45 45 45 46 47 47 46 45 44 44 44 43 42 43 42 42 43 43 44 43 42 42 41
51 52 53 54 54 54 53 53 53 51 49 47 46 47 49 49 49 49 49 49 49 48 47 46 45 45 43 43 43 42 42 43 43 42 42 42 41 40
49 50 51 52 53 52 52 54 54 53 52 51 50 51 52 52 51 51 51 50 50 49 48 47 46 45 44 44 43 43 43 43 42 42 42 41 40 39
48 49 49 50 50 51 52 53 54 54 55 55 54 54 54 54 54 53 52 51 51 50 49 48 46 45 45 45 44 43 42 42 42 41 41 40 39 37
50 50 50 50 50 51 53 54 54 55 56 56 56 56 56 56 56 55 54 53 51 50 49 48 47 46 45 45 43 42 41 41 41 40 39 39 38 36
51 52 52 52 53 53 54 55 56 57 57 58 58 58 58 57 56 55 54 53 52 51 49 48 47 46 44 43 41 40 40 40 39 39 38 37 36 34
53 53 54 54 56 57 58 58 59 59 59 60 60 60 59 58 57 56 55 54 52 50 48 47 45 44 43 41 40 39 39 39 38 38 37 36 34 32
57 57 58 58 59 60 61 62 62 62 61 61 61 60 59 58 57 56 54 52 50 49 48 46 45 43 41 40 39 39 39 38 38 37 36 35 32 30
60 60 61 62 62 62 62 62 61 61 60 60 59 58 58 58 56 53 51 50 49 48 47 45 44 43 41 40 40 39 38 38 37 36 34 33 31 29
62 62 63 63 63 62 62 61 61 61 60 59 58 57 56 56 55 53 52 50 49 47 46 45 44 43 42 41 40 39 38 37 36 34 33 31 30 28
65 64 64 64 63 63 62 62 61 60 60 59 58 57 56 55 55 54 52 50 49 48 46 45 43 42 41 40 39 38 37 36 34 33 31 30 29 27
66 65 64 64 63 62 63 62 60 59 59 59 59 58 56 55 54 53 51 49 48 47 46 45 43 41 40 39 38 37 36 34 33 32 31 29 28 27
63 63 63 63 63 63 61 61 60 59 60 61 60 59 58 56 54 52 51 49 46 45 44 43 41 40 39 38 38 36 35 34 33 31 30 29 28 27
60 61 62 62 63 62 61 61 61 60 60 60 59 58 57 55 53 51 49 48 46 45 44 42 40 39 39 38 38 36 34 33 32 31 30 29 28 27
57 58 59 60 61 62 61 60 60 60 59 58 56 55 54 52 52 51 49 47 46 45 43 41 40 40 39 38 37 35 34 33 32 31 30 29 28 27
55 54 55 57 58 59 59 59 59 59 58 56 54 53 53 52 51 50 48 47 45 44 43 41 40 39 38 37 36 34 33 33 32 31 29 29 28 27
52 51 52 53 54 55 56 57 57 56 55 55 53 53 52 51 50 49 47 46 44 44 43 41 39 38 37 37 35 34 33 33 32 31 29 29 28 28
48 48 48 48 48 49 51 52 53 53 53 52 52 51 50 49 48 47 46 45 43 42 41 40 39 38 37 36 35 34 33 32 31 30 30 29 29 29
44 44 45 45 45 46 46 47 48 49 49 49 49 48 47 46 45 45 44 44 43 42 40 38 38 37 36 36 35 34 33 32 31 30 30 30 30 29
39 40 41 41 41 41 42 43 44 45 46 46 46 46 45 45 44 43 43 42 41 40 39 38 37 37 36 35 34 34 33 32 31 30 30 30 30 30
33 34 35 36 36 37 38 40 41 42 42 43 43 43 43 43 42 41 41 41 40 39 38 37 37 36 36 34 34 33 33 32 31 31 31 31 30 30
28 29 30 31 32 33 34 36 37 39 39 40 41 40 40 40 39 39 39 39 38 38 37 36 36 36 35 35 34 33 32 32 31 31 31 31 31 31

GEFSNE_500_meanwind_108.txt.gz
Wind_Speed
55 54 54 55 54 54 54 54 54 53 51 50 51 51 50 50 49 49 47 47 46 44 43 43 43 43 42 41 41 41 40 40 39 38 37 36 36 35
56 56 56 56 56 55 54 54 54 53 53 52 52 52 52 52 51 50 48 48 46 44 43 43 43 42 42 42 43 42 42 41 39 38 38 37 36 35
56 57 57 57 57 56 56 57 57 56 55 54 53 53 53 53 52 51 50 47 46 46 45 44 43 43 43 43 42 42 42 41 40 39 38 37 36 35
56 57 58 58 58 58 58 57 56 56 57 56 55 55 54 54 54 53 52 50 48 47 47 47 46 46 46 44 44 43 42 41 40 39 38 37 36 35
55 57 58 59 59 60 59 59 58 58 58 58 58 58 56 56 56 55 53 52 51 50 49 49 49 48 47 46 45 44 43 41 40 39 38 37 36 35
56 57 59 60 60 61 61 62 62 61 60 60 61 61 59 58 58 57 55 54 53 53 52 51 51 50 49 48 47 46 45 43 42 40 38 37 36 34
56 58 59 61 62 62 63 63 63 63 63 62 62 62 60 59 58 58 57 56 56 55 54 54 53 51 50 49 48 47 46 44 42 40 39 38 36 34
57 58 59 61 63 63 64 64 64 64 64 63 62 61 60 59 58 59 58 57 57 56 56 55 54 53 52 50 49 47 45 43 42 41 39 37 35 34
59 60 60 61 62 63 63 63 64 64 64 63 62 61 61 60 60 60 59 59 58 57 57 56 55 53 52 52 50 48 46 44 42 40 39 37 35 32
61 61 61 61 62 63 64 65 65 65 65 65 64 62 62 61 60 60 60 60 60 59 58 57 55 54 53 52 51 49 46 44 41 39 37 36 34 32
60 61 61 62 63 65 66 67 67 67 67 67 66 63 61 61 62 62 61 60 59 58 58 56 55 54 53 52 50 47 45 43 40 39 37 35 33 32
58 60 60 61 62 63 64 65 66 66 66 66 65 64 63 61 61 61 60 59 58 57 56 55 54 52 51 50 49 47 44 42 40 38 36 34 33 31
57 59 60 61 62 62 62 63 64 64 64 64 63 63 62 61 60 59 58 58 57 57 55 54 52 50 50 48 46 45 43 41 39 37 36 34 33 31
57 58 59 60 61 61 62 62 62 63 63 63 63 61 61 60 59 58 57 56 55 54 52 51 50 49 49 48 45 43 41 40 38 36 35 34 33 32
56 57 58 58 59 60 61 62 62 61 62 61 60 60 59 59 58 57 55 53 52 51 51 50 50 49 48 46 44 43 42 40 38 36 35 34 33 33
53 55 56 57 58 59 59 60 61 60 59 59 58 57 57 57 56 55 54 53 51 50 50 48 48 47 46 45 44 42 40 38 37 36 35 35 34 33
50 51 53 55 56 57 57 58 58 57 56 56 56 55 54 53 53 53 53 51 50 50 49 48 47 46 45 44 43 42 40 38 37 36 36 35 34 33
48 48 49 50 51 52 52 51 51 52 53 54 54 53 53 52 52 52 51 51 50 49 49 48 47 45 44 44 43 41 39 39 38 37 36 35 34 33
48 47 47 46 45 45 45 46 46 47 48 49 50 51 51 51 51 52 51 51 49 49 48 47 46 45 44 43 42 41 40 39 38 38 36 35 33 33
44 43 42 40 40 40 40 40 41 42 43 45 46 47 47 48 48 48 48 48 47 47 47 46 45 44 43 42 41 40 39 38 37 36 36 34 33 33
39 37 36 35 35 35 35 35 37 38 39 41 42 43 43 45 45 46 46 46 45 45 45 45 44 43 43 42 41 40 39 37 36 35 35 34 33 33
34 32 31 30 30 30 30 31 32 33 35 37 39 40 40 41 42 43 44 44 44 43 43 43 43 43 42 42 41 39 38 37 36 36 35 34 33 33
28 27 26 25 25 25 25 26 27 29 31 33 35 36 37 38 39 40 42 42 42 42 43 42 41 40 40 39 39 39 38 37 36 36 35 34 34 34

GEFSNE_500_meanwind_114.txt.gz
Wind_Speed
51 52 54 54 53 53 54 54 54 53 53 52 51 50 50 51 50 50 50 49 48 48 47 47 46 45 44 42 41 39 39 38 37 37 36 35 34 33
49 50 51 53 53 53 53 53 54 54 53 51 52 51 51 51 52 52 51 51 50 49 48 48 47 46 45 44 42 41 39 39 39 38 37 36 35 34
47 49 51 52 55 54 55 55 56 57 56 54 55 54 54 53 53 53 52 52 50 50 49 48 48 48 47 46 45 43 42 41 40 39 38 37 36 34
48 50 51 52 54 55 55 55 56 57 57 57 57 57 58 57 56 55 54 53 53 52 51 51 51 50 49 48 46 45 44 43 42 41 39 38 37 36
49 51 52 53 55 57 57 57 57 58 59 60 60 60 60 60 59 57 57 56 55 55 54 53 53 52 51 50 48 47 46 45 43 42 42 41 39 38
50 51 53 54 55 57 58 59 60 60 61 61 61 61 61 61 61 61 60 58 57 57 56 55 55 54 54 53 51 49 47 46 45 44 44 42 41 39
51 53 55 56 57 58 59 60 61 62 63 63 62 62 62 62 63 62 62 60 58 57 56 56 56 55 55 54 53 51 49 48 46 46 45 44 42 40
51 53 54 56 58 59 60 61 63 63 63 62 62 62 62 62 63 63 62 61 59 58 58 58 57 56 56 55 54 52 50 49 47 47 46 44 43 41
51 53 55 56 58 59 60 61 61 61 61 62 61 61 62 62 62 63 63 63 62 60 60 59 59 58 56 55 54 53 52 50 48 48 47 45 43 42
53 54 55 56 58 59 59 59 60 60 60 60 61 60 60 62 62 62 61 62 62 61 61 61 59 58 57 56 55 54 53 51 49 48 47 46 44 42
52 53 55 55 56 57 57 58 58 58 59 59 59 59 59 60 62 62 62 62 62 61 60 60 58 57 56 56 55 54 52 51 49 48 48 46 44 42
51 52 53 54 55 56 56 56 56 56 57 57 58 59 59 59 60 61 61 60 60 60 59 58 58 58 56 55 55 54 52 50 48 48 47 45 45 43
52 52 53 54 54 56 56 56 56 56 56 56 56 57 57 58 58 59 60 59 59 58 58 58 57 57 55 54 54 53 51 50 49 48 47 45 44 43
52 52 53 53 54 55 55 55 55 55 54 54 54 55 56 56 57 57 58 58 57 56 55 55 55 54 54 54 54 53 51 50 48 48 47 45 44 43
50 51 51 52 53 53 54 54 54 53 53 53 53 53 54 54 54 54 54 55 54 54 53 53 53 52 51 51 50 50 49 48 47 46 44 43 42 42
48 48 49 50 50 50 51 52 52 52 52 52 51 51 52 52 52 52 53 53 52 51 51 50 50 49 49 48 48 48 48 48 47 45 43 42 42 42
46 47 47 46 46 46 47 48 49 50 51 51 51 51 51 52 51 52 52 52 51 50 49 50 50 50 49 48 47 47 48 48 46 45 43 43 42 43
44 44 43 43 43 43 43 44 46 47 48 49 50 50 50 50 50 50 51 50 49 49 48 47 49 50 50 49 48 47 47 46 45 44 43 43 42 42
43 43 42 42 41 40 41 41 42 43 44 44 45 45 45 45 46 47 48 48 48 47 47 47 46 47 47 46 45 45 45 45 44 43 42 42 41 41
42 41 41 40 39 39 38 38 38 38 37 38 38 39 40 41 41 42 42 43 43 43 43 44 43 43 43 43 43 42 43 42 42 42 42 42 41 41
40 40 39 38 37 37 36 35 34 33 32 32 32 33 34 35 36 38 38 39 40 41 40 40 41 40 40 40 41 41 42 42 41 41 40 40 40 39
38 36 35 35 34 33 32 30 28 28 28 28 28 28 29 30 32 34 35 36 36 37 38 38 39 39 39 40 40 40 40 41 41 40 39 39 38 38
35 33 31 30 29 29 27 25 24 23 23 24 24 24 25 26 28 31 33 33 34 35 36 36 37 37 37 38 39 39 39 40 40 39 38 38 38 38

GEFSNE_500_meanwind_120.txt.gz
Wind_Speed
51 52 52 52 53 54 54 55 56 56 55 54 55 55 56 55 54 53 53 52 52 52 51 51 51 50 49 49 48 46 44 44 43 42 41 39 38 37
48 50 51 52 53 54 55 55 55 56 56 56 57 56 56 56 56 56 55 54 54 54 54 53 52 52 51 50 49 48 47 46 45 44 43 41 39 39
47 49 50 51 52 52 53 55 56 57 57 57 57 58 58 58 58 59 59 58 57 56 56 55 54 54 53 52 51 50 49 48 47 46 45 44 43 42
45 47 49 51 52 53 53 55 57 58 59 58 58 58 59 60 59 59 60 60 59 59 59 58 56 55 55 54 53 52 52 51 50 49 47 46 45 44
44 45 48 50 51 54 55 56 57 58 59 59 60 61 61 60 60 61 61 61 61 60 59 57 57 57 56 55 54 55 53 52 52 50 49 48 47 45
45 46 47 49 51 53 54 56 57 58 59 59 60 62 62 61 62 62 62 62 62 61 60 59 58 58 58 57 56 56 56 55 53 52 51 50 48 46
46 48 49 50 51 53 54 55 56 57 59 60 60 61 61 62 62 62 62 61 60 61 62 61 61 61 60 60 59 58 58 56 55 54 52 51 50 48
46 47 49 50 51 53 54 56 57 58 59 60 60 61 62 63 63 63 64 64 62 61 62 63 63 62 62 61 61 61 60 59 57 56 54 52 51 50
47 48 49 49 51 52 53 55 56 57 58 59 60 60 62 64 64 64 64 64 62 61 63 64 64 64 64 63 62 61 61 60 59 58 57 54 53 52
46 46 48 49 51 52 53 54 55 56 57 58 59 60 61 62 63 63 63 63 62 62 63 63 64 66 67 66 64 62 61 60 59 58 57 56 54 54
46 47 49 50 52 53 53 54 54 55 56 58 59 60 60 60 61 62 63 63 62 61 61 61 61 63 64 64 63 62 61 60 60 60 58 57 56 55
47 48 50 51 51 52 53 53 54 54 55 56 57 57 57 58 59 60 61 62 61 60 60 60 59 61 61 61 61 61 61 60 59 59 58 57 56 55
46 47 49 50 50 51 52 52 52 53 54 54 53 53 54 54 54 55 57 57 57 56 57 57 57 57 58 58 59 59 59 58 57 57 55 55 55 54
45 46 47 48 49 50 50 51 51 51 52 52 52 52 52 52 53 53 53 53 54 54 54 55 55 55 55 56 57 58 58 58 57 56 55 54 54 54
44 45 46 47 47 47 48 49 50 50 50 51 51 51 51 51 51 51 52 52 52 53 53 53 53 54 55 55 55 56 56 56 56 56 56 55 54 54
44 44 44 44 44 44 46 47 47 48 48 49 49 49 49 50 50 51 51 51 50 51 51 50 51 51 51 51 52 53 54 54 54 54 54 54 54 53
43 43 43 42 42 43 43 44 44 45 46 46 46 46 47 47 48 48 49 50 49 49 49 49 49 48 47 47 48 49 50 51 52 52 51 51 50 51
42 41 41 40 40 41 41 41 41 42 42 43 43 43 43 43 44 45 46 47 48 47 47 47 48 47 45 45 46 47 47 47 48 49 49 50 49 49
41 40 40 40 40 39 38 38 38 38 39 39 39 39 40 40 40 41 43 44 44 45 46 46 46 45 44 43 44 45 46 46 46 47 47 47 47 47
40 40 40 39 39 38 36 35 35 34 35 35 36 36 37 38 38 37 38 39 40 40 42 44 44 43 42 42 42 43 45 45 44 45 46 46 46 46
40 40 39 37 36 35 33 32 31 31 31 32 32 33 34 34 35 35 35 35 36 36 37 39 39 40 40 41 41 41 43 44 44 45 45 45 44 45
39 38 36 34 33 32 31 29 28 28 29 29 28 29 30 30 31 32 32 32 33 34 35 36 36 38 39 39 40 40 41 43 43 44 44 43 43 43
37 35 33 32 31 30 29 28 27 27 27 26 25 25 26 26 27 28 29 30 30 31 32 34 35 35 36 37 37 39 40 41 41 41 42 42 42 42

GEFSNE_500_meanwind_126.txt.gz
Wind_Speed
42 44 45 46 47 48 49 51 52 53 54 55 55 56 57 57 57 58 57 57 57 56 54 53 54 54 53 52 51 49 49 49 48 47 46 45 44 43
43 43 44 46 47 48 49 50 52 53 53 54 55 55 56 58 59 60 59 59 59 58 57 55 54 54 54 54 53 52 51 49 49 48 47 47 46 45
42 43 43 45 47 48 49 50 51 52 52 53 54 55 56 56 58 59 60 60 60 60 60 58 58 58 58 58 57 55 54 52 51 51 49 48 48 47
43 43 44 44 46 48 49 50 51 52 53 54 54 55 56 56 57 58 60 61 62 63 63 61 59 59 60 60 60 58 56 55 54 53 53 52 51 51
43 44 44 45 45 47 48 50 51 52 53 54 55 55 56 57 57 58 58 60 61 62 64 64 62 61 61 61 61 60 60 58 58 57 56 55 53 52
44 45 46 46 47 47 48 49 50 52 53 55 56 57 58 59 59 59 59 60 61 61 63 63 63 62 61 61 61 61 61 60 59 59 58 57 55 54
45 45 47 47 48 49 49 50 50 52 53 54 55 56 57 59 60 61 61 60 61 61 61 62 62 63 63 62 61 62 62 61 61 61 60 59 57 55
45 46 46 47 48 49 49 50 51 52 53 54 55 56 56 58 59 60 61 61 61 61 62 62 62 63 63 63 63 63 63 62 62 62 60 60 59 58
44 45 46 47 48 49 49 50 51 52 53 54 54 55 56 57 57 58 58 60 61 61 62 61 62 62 63 64 64 64 64 64 63 62 61 60 59 58
44 46 47 47 49 49 50 50 51 51 52 53 53 54 54 55 56 57 58 59 59 60 61 61 61 62 62 63 64 64 63 63 63 63 62 61 59 58
44 45 46 47 48 48 49 49 49 50 51 52 52 53 54 55 56 56 57 58 57 57 59 60 60 60 60 60 60 61 62 63 63 63 62 60 59 59
44 45 46 46 47 47 48 48 48 48 49 50 51 53 53 54 54 54 55 56 56 55 56 58 58 60 59 57 58 60 61 62 62 63 62 61 60 60
44 44 45 45 45 46 46 47 46 47 48 49 50 51 52 52 52 53 54 54 54 54 54 55 55 57 57 56 56 57 58 58 59 59 60 61 61 61
43 44 44 45 45 45 46 46 46 46 46 47 47 48 49 49 50 51 52 52 52 51 52 53 53 53 54 54 54 54 55 56 56 57 58 59 59 59
44 44 44 44 44 45 45 45 45 44 44 45 45 45 46 46 47 48 49 49 49 49 50 50 50 50 50 50 50 51 52 52 54 54 55 56 56 56
43 43 43 43 44 44 43 43 43 43 42 42 41 41 42 43 44 45 45 46 46 47 47 47 47 48 47 47 48 48 49 50 51 52 53 53 54 54
42 42 42 42 43 42 42 42 41 41 40 40 39 39 40 40 41 42 42 42 43 44 44 46 46 46 46 46 46 46 46 46 47 49 50 50 52 52
42 42 42 42 42 42 41 41 40 39 39 39 38 38 38 38 38 39 39 39 40 40 41 42 43 43 44 44 43 43 44 44 45 47 48 48 49 50
42 42 42 42 42 41 40 39 38 38 38 37 37 36 36 36 36 36 36 36 36 36 36 37 39 40 40 39 39 42 42 42 42 44 45 46 47 48
43 42 42 42 40 39 38 37 36 36 35 34 34 34 33 33 33 33 32 32 32 32 32 33 35 36 37 37 37 38 39 39 40 41 42 43 45 45
43 42 41 40 38 37 36 35 34 33 33 32 32 32 31 30 29 29 28 28 28 28 28 29 31 33 34 35 35 36 37 37 37 37 38 40 42 43
42 40 39 38 37 35 34 34 34 33 33 32 31 31 30 29 27 26 26 26 26 26 26 27 29 31 32 32 33 34 34 34 34 34 35 36 38 40
40 39 38 37 36 35 34 34 33 33 32 31 31 30 29 27 26 26 26 25 25 25 25 26 27 28 29 30 31 32 33 33 33 33 33 34 35 37

GEFSNE_500_meanwind_132.txt.gz
Wind_Speed
41 41 42 42 43 44 44 44 45 46 47 47 48 49 50 51 52 53 53 54 54 55 55 56 57 57 58 59 57 56 55 54 53 53 52 51 49 48
41 42 43 43 44 44 45 46 46 47 46 47 48 49 50 51 52 54 54 54 55 55 57 57 58 59 59 59 59 58 58 57 56 55 55 54 53 51
42 43 44 44 45 46 46 46 47 47 47 48 49 50 51 52 53 54 54 55 55 55 56 57 58 58 59 59 59 59 59 59 58 56 56 56 55 54
44 44 44 44 44 45 46 46 47 47 48 49 50 51 52 53 54 54 55 56 56 56 57 58 59 60 60 60 60 60 60 60 60 58 57 57 57 57
44 44 44 44 44 45 46 47 47 48 48 49 51 52 53 54 54 55 56 57 58 58 58 59 60 61 62 62 62 62 61 61 61 60 59 58 58 59
43 44 44 45 45 46 46 47 48 49 49 50 50 52 53 54 54 55 56 57 59 59 60 61 61 62 63 64 63 63 62 63 62 62 61 60 60 60
44 44 44 45 45 46 46 47 48 49 49 50 50 51 52 54 55 55 56 56 58 59 59 60 61 62 62 64 65 65 64 63 64 63 63 63 62 62
43 43 44 44 45 46 46 47 47 48 49 50 50 51 51 53 54 55 56 56 56 57 58 58 59 61 62 63 64 64 64 63 63 63 63 64 64 63
43 43 44 44 44 45 45 46 47 47 48 49 49 50 51 52 53 54 55 55 54 55 56 56 57 58 60 62 63 63 63 63 63 63 63 63 64 64
43 43 43 43 43 43 43 43 44 45 46 47 48 50 51 53 53 53 53 54 54 55 55 54 55 56 58 60 61 62 62 63 62 62 63 63 63 64
43 43 43 43 43 43 42 42 43 44 45 47 48 48 50 51 51 52 52 53 53 53 55 55 54 55 55 56 58 60 61 61 61 62 61 62 63 64
42 43 43 43 43 43 42 43 43 44 46 47 47 47 47 48 49 50 50 50 51 51 52 53 53 54 53 54 56 58 60 61 61 61 62 62 62 62
42 42 43 43 43 43 43 43 44 45 45 46 45 45 45 45 45 46 47 47 48 48 49 50 50 51 52 51 53 55 57 59 60 60 61 62 61 61
42 42 43 43 43 43 43 43 44 44 44 43 43 43 43 44 44 44 44 45 46 46 46 47 47 48 48 48 49 51 53 55 57 58 58 59 60 60
42 43 43 43 43 43 43 43 43 43 42 42 42 42 42 42 42 42 42 42 42 43 43 44 45 45 46 46 46 48 49 51 53 55 55 56 56 56
42 43 43 43 43 43 43 43 43 42 41 41 41 41 41 41 41 41 40 40 40 40 41 41 41 43 43 44 44 45 47 48 50 52 53 52 53 54
43 43 43 43 43 43 43 43 42 42 41 41 40 40 39 39 38 38 38 38 39 39 40 40 41 41 41 41 42 43 44 46 48 49 50 50 50 51
43 43 43 43 43 42 42 42 41 40 39 38 38 37 36 36 35 36 36 37 37 37 37 38 39 39 39 39 40 40 41 43 45 47 48 48 48 49
42 42 42 42 42 41 41 40 39 37 36 36 35 35 35 34 34 34 34 34 35 35 35 35 36 36 36 37 37 38 39 40 41 43 45 46 45 46
41 40 40 40 39 39 39 37 36 36 35 35 35 35 34 33 33 34 34 34 34 33 33 33 34 35 34 34 34 35 37 37 38 40 42 43 44 45
39 38 38 38 38 38 37 36 35 35 35 35 35 34 33 33 33 33 33 33 33 32 32 32 32 33 33 33 33 32 33 34 36 38 40 41 42 42
37 36 37 37 37 37 36 36 35 35 34 34 34 33 33 32 32 32 32 31 31 30 30 30 30 30 31 31 30 30 31 32 32 34 36 39 40 40
35 36 36 37 37 36 36 35 34 34 33 33 33 32 31 31 31 31 31 30 29 28 27 27 27 27 27 27 27 27 28 29 31 31 33 35 37 38

GEFSNE_500_meanwind_138.txt.gz
Wind_Speed
44 44 44 44 44 44 44 44 44 44 44 45 46 46 47 47 47 48 48 48 49 49 49 50 50 51 52 53 53 53 53 54 54 54 53 53 52 52
44 44 44 44 45 45 46 46 46 46 46 46 47 47 47 48 48 49 50 51 51 52 51 51 52 53 52 53 55 55 55 55 54 54 54 53 54 54
44 44 45 45 46 46 47 47 47 47 47 47 47 47 48 48 48 48 49 51 51 52 53 52 52 54 54 54 54 54 54 55 56 56 56 55 55 54
45 45 45 46 46 47 47 47 47 46 47 47 47 48 48 49 50 50 50 50 52 53 53 53 54 54 55 55 56 55 54 55 57 58 57 57 56 55
45 45 46 46 46 46 46 46 45 46 46 46 46 47 48 48 50 50 50 51 52 53 54 54 54 55 55 56 56 56 56 56 58 59 60 60 59 57
45 45 46 46 45 45 45 45 45 45 45 45 45 46 48 48 49 50 50 50 51 52 53 54 55 55 56 56 57 57 57 58 58 59 59 60 60 60
44 45 45 44 44 44 44 44 44 44 45 45 46 47 48 48 48 49 49 50 50 51 52 53 54 54 55 56 57 58 58 59 59 59 60 60 60 60
43 43 44 43 43 43 43 43 44 44 44 45 46 47 47 48 48 48 48 49 49 50 51 51 52 52 53 54 55 56 56 58 58 59 60 60 60 59
43 43 43 42 42 43 43 43 44 44 45 45 46 46 46 46 47 47 47 46 47 49 50 50 51 52 53 53 54 54 54 55 56 57 59 59 60 61
42 42 42 42 42 42 43 43 44 44 45 45 46 45 45 45 45 44 43 43 43 45 47 48 49 50 51 53 54 54 55 55 56 57 58 58 58 59
42 41 42 42 43 43 43 43 44 45 45 45 45 45 45 44 44 43 42 42 43 44 46 46 47 48 49 50 52 53 54 54 55 56 57 58 58 58
42 42 42 43 43 43 43 44 44 44 45 45 45 45 44 44 42 42 42 42 43 44 45 46 46 47 46 47 48 49 50 51 53 54 55 56 57 58
42 42 42 43 43 44 44 44 44 44 44 45 45 44 44 43 42 42 42 42 43 44 45 45 46 46 46 45 46 47 49 49 50 51 53 53 54 55
42 43 43 44 44 44 44 44 44 44 44 44 44 44 44 43 43 43 42 43 44 45 45 45 45 46 46 46 46 46 47 47 47 47 48 49 51 52
42 43 43 43 43 44 44 44 44 44 44 44 44 44 44 43 42 42 42 43 43 43 43 42 42 43 43 43 43 44 45 45 45 45 45 46 47 49
42 42 43 43 43 44 43 43 43 43 43 43 43 43 42 41 41 41 41 41 40 40 40 40 40 40 40 40 40 40 42 42 43 45 45 45 46 46
41 41 42 42 42 43 43 43 42 42 42 43 42 41 40 40 40 39 39 39 38 37 37 38 38 38 38 38 38 38 39 40 41 41 42 42 42 43
40 40 40 41 41 41 41 41 42 42 42 42 41 40 39 38 38 38 38 37 37 36 36 37 37 37 36 36 37 36 37 38 39 39 40 40 40 42
39 39 40 40 40 40 40 40 41 41 41 40 39 38 38 37 37 37 37 36 36 36 36 36 36 36 35 34 34 36 36 37 38 38 39 40 40 40
39 39 39 40 40 40 40 40 40 39 39 38 37 37 37 36 36 36 36 36 36 35 35 35 35 35 34 32 31 32 35 35 36 36 38 39 39 39
38 38 38 39 39 39 39 39 38 37 37 37 36 36 36 35 35 35 35 35 34 34 33 34 34 33 33 32 30 30 32 34 34 34 35 36 37 38
37 37 37 38 38 38 37 37 36 36 36 36 35 35 35 35 34 34 33 32 32 32 31 31 30 30 30 30 30 29 29 30 31 32 32 33 33 35
36 36 36 36 36 36 35 35 34 35 35 35 34 34 34 33 32 31 30 30 30 29 29 28 28 28 28 28 28 28 27 27 27 27 28 30 30 31

GEFSNE_500_meanwind_144.txt.gz
Wind_Speed
48 48 47 47 47 47 47 47 46 46 46 46 47 48 48 49 49 50 50 50 50 51 51 51 52 52 53 54 55 55 55 55 55 55 56 57 56 54
49 49 49 49 49 48 48 47 47 47 47 47 48 49 49 50 50 50 50 51 50 50 51 52 52 52 53 53 54 55 56 57 56 56 57 57 57 56
49 50 50 49 49 48 48 48 48 48 47 48 49 49 49 49 50 50 50 50 50 51 52 52 53 52 52 53 54 55 56 57 56 56 56 56 57 57
50 50 49 48 48 48 48 47 47 47 47 48 49 49 49 49 49 49 48 48 49 50 51 51 52 52 52 53 53 53 54 55 55 55 56 56 56 57
49 49 49 48 48 48 47 47 47 48 48 48 48 48 48 48 48 48 48 49 49 50 51 51 51 52 52 53 53 54 54 55 55 55 55 56 57 58
49 49 48 48 48 47 47 47 47 47 47 47 47 47 48 47 47 47 47 48 48 49 50 50 51 51 52 52 53 54 54 54 55 55 55 55 55 56
48 48 48 47 47 47 46 46 46 46 47 46 46 46 46 46 46 46 46 46 47 48 48 49 50 51 51 51 51 52 54 54 55 56 56 55 55 55
48 47 47 47 46 46 46 45 45 45 45 45 45 45 45 45 45 45 45 45 46 47 48 48 49 49 49 49 50 51 54 55 55 55 56 57 57 56
47 46 46 46 46 45 45 45 45 44 44 44 44 44 44 44 44 44 45 45 46 46 46 46 47 47 48 48 48 49 50 52 53 55 56 57 57 57
46 46 45 45 44 44 44 44 44 44 44 44 44 45 45 44 44 44 44 44 45 45 45 44 45 46 47 47 47 48 49 51 52 52 54 55 56 56
45 45 44 44 43 43 43 43 43 43 44 44 44 44 45 45 44 44 44 44 44 44 45 45 45 45 45 47 47 48 48 50 51 52 53 53 54 54
44 44 44 44 43 43 43 43 43 43 43 43 44 44 44 44 44 44 44 44 44 43 44 44 44 44 44 44 46 47 47 48 49 51 52 53 53 53
43 42 43 43 43 43 43 43 43 43 42 42 42 42 42 42 43 43 43 43 43 42 42 42 42 43 43 42 43 45 46 47 48 48 50 51 52 53
42 42 42 43 43 42 42 42 42 42 42 42 42 42 42 42 43 43 43 42 42 42 42 42 42 42 42 42 42 43 45 46 46 47 47 48 50 51
41 41 42 42 42 42 42 41 41 41 41 41 41 41 42 42 42 42 42 42 42 42 42 42 42 42 42 41 41 42 43 43 44 45 45 45 46 48
41 41 41 41 41 41 41 41 41 41 40 40 41 41 41 41 41 41 42 42 41 41 42 42 42 41 41 41 41 41 41 41 42 44 44 44 45 45
41 41 41 41 40 40 40 40 40 40 40 40 40 41 41 41 41 41 41 41 41 41 41 41 41 41 40 40 40 40 40 40 41 42 43 44 44 45
39 39 39 39 39 39 39 39 39 40 39 39 39 39 40 40 40 40 40 40 40 40 40 40 40 39 39 39 39 39 40 40 39 40 42 42 43 44
38 38 38 38 38 38 38 38 38 38 38 38 38 38 38 38 38 38 38 38 38 38 39 39 38 38 37 37 37 39 39 38 38 38 40 40 40 42
38 37 37 37 37 36 36 35 35 36 36 36 36 36 36 36 36 36 36 36 36 36 36 36 36 36 35 34 34 34 36 36 35 36 37 38 38 39
37 37 36 36 35 34 34 34 33 33 34 34 34 34 34 33 34 34 34 34 34 34 33 33 33 33 32 32 30 30 32 33 33 33 33 34 35 36
36 35 35 34 33 33 33 32 32 32 32 33 33 32 32 32 32 32 32 31 31 31 31 30 30 30 30 29 28 28 28 29 30 30 30 31 32 31
34 33 32 32 32 32 32 31 31 31 31 31 31 31 31 31 30 30 29 29 29 28 28 27 27 27 27 27 27 27 27 27 27 27 27 28 28 28

GEFSNE_500_meanwind_150.txt.gz
Wind_Speed
50 50 51 51 52 52 53 53 53 52 52 52 52 52 52 52 52 52 52 52 51 52 52 52 52 52 52 52 52 52 52 52 52 52 52 53 53 53
51 52 52 53 53 54 54 54 54 54 53 52 52 52 52 51 51 51 51 51 51 51 52 52 52 52 52 52 52 52 52 51 52 53 52 52 52 52
52 52 53 53 54 54 55 54 54 54 53 52 52 52 51 51 51 51 51 50 51 51 51 51 52 52 52 51 51 51 51 51 51 52 53 52 51 52
53 53 54 54 55 55 54 53 53 53 53 52 52 52 51 51 51 50 50 50 50 50 50 50 50 50 50 50 50 50 50 50 50 51 52 52 51 51
54 54 55 55 55 54 54 53 53 53 52 52 51 51 50 50 50 49 49 49 49 49 49 49 49 49 49 49 49 49 49 50 50 50 51 52 52 52
55 55 55 55 54 54 53 52 52 51 51 50 49 49 49 48 48 48 48 48 48 48 48 48 49 49 49 49 49 49 49 49 50 50 50 51 51 51
56 55 55 55 54 53 52 51 51 50 50 49 49 48 48 47 47 47 47 47 47 47 47 48 47 47 47 47 47 47 47 48 49 49 49 49 50 51
55 55 55 54 53 52 51 50 50 49 49 48 48 47 47 47 47 47 46 46 46 46 46 46 46 45 46 47 46 46 46 47 48 48 48 48 49 49
54 54 53 52 51 51 50 50 49 48 48 48 47 46 46 46 46 46 46 45 45 45 45 44 44 44 45 45 46 46 46 46 46 46 46 47 48 49
53 52 51 50 49 49 49 48 48 47 47 46 46 45 45 45 45 45 45 44 44 44 44 43 43 44 45 45 45 46 46 46 46 46 46 46 47 47
51 50 49 48 48 48 47 46 46 46 46 46 45 45 44 44 44 44 44 44 43 43 44 44 43 44 44 45 45 46 46 46 47 47 48 48 48 48
50 49 48 47 46 46 46 45 45 44 45 44 44 44 43 43 43 43 43 43 43 43 43 44 44 44 43 44 45 45 46 46 46 47 48 48 48 49
49 48 47 46 45 45 45 44 44 43 43 43 43 42 42 42 42 42 43 43 43 43 43 43 43 43 43 43 43 44 45 46 46 47 48 48 48 48
47 46 45 44 44 43 43 42 42 42 42 42 41 41 41 42 42 42 42 42 42 42 42 42 41 42 42 42 42 43 43 44 46 46 46 47 47 48
46 45 44 43 42 41 41 41 41 41 41 40 40 40 41 41 41 41 41 41 41 41 41 40 40 41 41 42 42 42 42 43 44 45 45 46 47 48
45 44 42 42 42 41 40 40 40 40 40 40 40 39 40 39 39 39 39 39 39 39 39 40 40 40 41 41 41 41 42 42 42 43 44 44 45 46
43 43 42 42 41 41 40 40 39 39 39 38 38 37 37 37 37 36 36 37 37 37 37 38 38 39 39 39 39 40 40 41 41 41 41 41 42 43
43 42 42 41 41 41 40 40 39 38 38 37 36 36 35 35 35 35 35 35 35 35 36 36 36 36 35 36 37 37 37 37 38 38 39 39 39 40
43 42 41 40 40 40 39 38 37 37 36 35 34 34 34 34 34 34 34 34 34 34 35 35 34 34 34 33 34 35 35 33 33 34 35 35 35 36
42 41 40 39 38 38 37 36 36 35 34 33 33 33 33 33 33 33 33 33 33 33 33 34 33 33 33 33 32 32 32 31 31 31 31 32 32 32
39 39 38 37 36 35 35 34 34 33 32 32 32 32 32 32 32 32 32 32 32 32 32 32 32 32 32 31 30 29 30 31 30 30 29 29 29 30
37 36 35 35 34 34 33 32 31 31 31 30 30 30 30 31 31 30 30 30 31 31 31 31 30 30 30 30 29 28 28 29 29 29 29 29 28 28
34 33 33 32 32 31 30 29 29 29 29 29 29 29 30 30 30 29 29 29 29 29 28 28 28 28 28 28 28 27 27 27 27 27 28 28 28 27

GEFSNE_500_meanwind_156.txt.gz
Wind_Speed
49 49 50 51 52 52 52 52 52 52 53 53 54 54 55 55 56 56 56 56 56 56 56 56 56 56 55 55 55 54 54 54 54 54 54 54 55 54
50 51 52 52 53 53 53 53 54 54 54 55 56 57 57 57 57 57 57 57 56 56 56 56 56 55 55 55 54 54 54 54 53 53 53 54 54 54
52 53 53 54 54 54 54 55 55 56 56 55 57 58 57 57 57 57 56 56 56 55 55 54 54 54 54 53 53 53 53 52 52 52 52 53 53 53
54 55 55 55 55 55 56 56 56 57 57 57 57 57 57 57 56 56 55 54 54 54 53 52 52 52 51 51 51 51 52 52 52 52 52 52 52 53
56 56 56 56 57 57 57 58 58 59 59 58 58 57 57 57 56 54 53 52 52 52 51 50 50 50 50 50 50 50 50 50 51 51 51 51 51 51
57 57 57 58 58 58 59 60 60 60 60 59 57 56 56 55 54 53 52 51 50 50 49 49 49 48 48 48 48 49 49 49 49 49 49 49 49 50
58 58 59 59 60 61 61 61 61 60 59 57 56 55 54 53 52 51 50 50 49 49 49 48 48 47 46 46 47 47 47 48 48 48 49 49 49 49
60 60 60 61 61 61 61 60 59 58 57 55 54 53 52 51 50 50 48 48 47 47 47 46 46 45 45 45 45 45 46 46 47 47 47 48 48 48
60 60 60 60 60 60 59 59 57 56 55 54 53 51 50 50 49 48 47 46 45 45 45 44 44 44 44 44 44 44 45 45 45 46 46 46 46 47
60 60 60 59 59 58 57 56 55 54 53 52 51 50 49 48 47 46 45 44 44 43 43 42 42 42 42 42 43 43 44 44 44 45 46 46 47 47
59 59 59 58 57 56 55 54 53 52 51 50 49 48 46 45 45 44 43 43 42 42 42 41 41 41 41 41 42 42 43 44 44 45 46 47 48 49
58 58 57 56 55 54 54 53 51 50 49 48 47 46 45 44 43 42 42 42 42 41 40 40 40 40 40 40 41 41 42 42 43 44 45 46 47 48
56 55 54 54 53 52 52 51 50 49 48 47 46 45 44 43 42 42 41 41 41 40 40 40 40 40 40 39 39 40 40 41 41 42 42 43 44 45
54 54 52 52 51 51 50 49 49 48 47 46 44 44 43 43 42 41 41 40 39 39 39 39 39 39 38 38 38 39 39 39 40 40 41 41 42 43
53 53 52 51 51 50 50 49 48 47 46 44 43 42 42 42 41 41 40 39 39 38 38 37 37 37 37 37 37 37 38 38 39 39 39 40 40 41
52 51 51 50 50 49 48 47 46 45 44 43 42 41 41 40 40 39 39 38 37 37 36 36 35 35 35 35 36 36 37 37 37 37 37 37 38 39
50 49 48 48 48 47 46 45 44 43 42 42 41 40 39 39 38 37 37 36 36 35 35 35 35 35 34 35 35 35 35 35 35 36 36 36 37 38
48 46 46 45 45 44 43 43 42 41 41 40 39 38 37 37 36 35 35 34 34 33 33 34 33 33 33 33 34 34 34 35 35 35 35 36 36 37
45 44 43 43 42 41 40 40 39 39 38 37 36 35 35 35 34 33 33 33 32 32 33 33 33 33 32 32 32 33 34 34 33 33 33 34 34 34
43 42 41 40 39 39 38 37 37 36 35 34 34 34 33 32 32 31 31 31 31 31 31 31 32 32 31 31 31 31 33 33 32 32 32 32 32 32
41 40 39 38 37 36 35 35 34 33 33 32 32 31 31 30 30 29 29 29 30 30 30 30 31 30 30 30 30 30 31 31 31 31 31 31 30 31
38 37 36 35 34 33 33 32 32 31 30 30 29 28 28 28 28 27 28 28 28 28 29 29 29 29 29 29 29 29 28 29 29 29 30 30 29 29
36 35 34 33 32 31 30 29 28 28 27 27 26 26 26 26 25 25 26 26 27 27 27 27 27 27 28 28 27 27 27 28 28 28 28 28 29 29

GEFSNE_500_meanwind_162.txt.gz
Wind_Speed
47 48 49 50 51 52 53 54 54 54 53 53 53 53 53 53 53 53 53 53 54 54 55 55 56 56 56 56 56 56 56 55 55 54 54 54 53 52
49 50 51 53 54 55 55 56 56 56 56 54 55 55 55 55 55 55 55 55 55 56 56 57 57 58 58 58 57 57 56 55 55 54 54 53 53 52
52 52 53 54 54 55 56 57 57 58 58 57 57 57 57 57 57 57 57 57 58 58 59 59 59 59 58 58 57 56 55 55 54 54 53 52 52 52
53 54 54 55 56 57 58 58 59 60 61 59 58 59 59 59 59 59 59 60 60 59 59 59 59 58 57 56 55 55 54 54 53 53 52 52 52 51
55 56 57 58 58 59 60 61 62 62 62 61 60 60 60 61 61 60 60 60 60 60 59 59 57 56 55 55 54 54 53 53 52 52 51 51 51 51
56 57 58 59 60 61 62 62 62 62 62 62 61 61 61 61 61 61 60 60 60 59 58 57 55 54 54 53 53 52 52 51 50 50 50 50 50 50
58 59 60 61 61 62 62 62 62 62 62 61 61 61 61 61 61 60 60 59 58 57 55 54 53 52 52 51 51 51 50 49 49 48 48 48 48 48
59 60 61 61 62 62 62 62 62 62 62 62 61 60 60 59 59 59 58 57 56 54 53 52 51 51 50 50 49 49 48 48 47 47 47 47 47 47
61 61 61 61 62 61 61 61 61 62 62 61 60 59 58 58 58 58 57 56 54 53 51 50 50 49 48 47 47 47 46 46 46 45 45 45 46 46
62 62 62 61 61 61 61 61 61 60 60 60 59 58 57 57 57 56 55 54 52 51 50 48 47 47 46 45 45 44 44 44 43 43 43 43 44 44
62 62 62 62 62 62 62 61 60 59 58 58 57 57 56 56 55 55 54 53 51 49 48 47 45 45 44 43 43 42 42 42 41 41 41 42 42 42
62 62 62 62 62 62 61 60 59 58 58 57 56 56 55 55 54 53 52 51 49 47 46 45 44 43 42 41 41 41 41 41 40 40 40 40 40 41
62 61 61 61 61 60 59 58 58 57 57 56 55 54 53 52 52 51 50 49 48 46 45 44 42 41 40 39 39 39 40 39 38 38 38 38 39 39
61 60 60 59 58 57 56 56 56 55 55 54 53 52 51 50 49 48 47 47 46 44 43 42 40 40 39 38 38 37 37 37 36 36 36 37 37 38
59 59 58 56 55 54 53 53 53 53 52 51 50 49 48 47 45 44 44 44 43 42 41 39 38 38 37 37 36 36 35 35 35 35 36 36 37 37
57 56 54 52 52 51 51 51 51 51 50 49 48 46 44 43 42 42 42 41 40 39 38 37 36 35 35 34 34 34 34 34 34 35 35 36 37 37
54 52 51 50 50 49 49 49 49 49 48 46 44 43 42 41 40 40 39 38 37 35 34 34 33 33 32 32 32 32 32 32 33 33 33 33 34 35
51 49 49 48 48 48 47 47 46 46 44 43 41 40 39 38 37 36 35 34 33 32 31 31 31 30 30 30 31 31 31 31 31 31 31 32 32 33
48 48 47 47 47 46 45 44 42 41 40 39 38 37 35 34 33 32 31 30 30 29 29 29 29 29 29 28 29 30 30 30 30 29 30 30 30 31
46 45 45 44 43 42 41 39 38 37 36 34 33 32 31 30 30 29 29 28 28 27 27 27 27 27 27 26 26 27 28 28 28 28 28 29 28 29
42 42 42 41 40 38 36 36 35 33 32 31 29 29 28 28 27 26 26 26 25 25 25 25 26 26 25 25 25 25 26 27 27 27 27 27 26 26
41 40 39 38 36 34 34 33 32 30 29 28 27 26 26 25 25 24 24 24 24 24 24 24 24 24 24 24 24 24 24 25 25 25 25 25 25 25
39 37 35 34 33 32 31 29 28 27 26 25 24 24 24 24 23 23 22 22 22 22 22 23 23 23 23 23 23 24 24 24 23 23 23 24 25 25

GEFSNE_500_meanwind_168.txt.gz
Wind_Speed
45 45 46 47 48 49 49 50 50 50 50 51 52 53 55 55 56 56 57 57 58 58 58 58 58 58 58 58 57 57 57 57 56 56 57 56 55 55
46 47 47 48 49 50 51 52 52 53 53 53 55 56 57 57 58 58 59 59 59 59 59 59 60 60 60 59 59 59 59 58 58 58 58 57 57 57
48 49 49 49 50 51 52 54 55 56 57 56 57 58 59 59 60 61 61 61 61 61 61 61 61 61 60 60 60 59 59 59 59 58 58 58 57 56
50 51 51 52 53 54 55 56 58 59 60 59 58 60 61 62 63 63 63 63 63 63 62 62 62 61 61 60 60 60 60 60 59 58 58 58 57 57
52 53 54 55 56 57 58 59 60 61 62 63 62 62 63 63 63 64 64 64 64 64 64 63 63 62 62 61 61 60 60 60 60 59 58 57 57 56
54 55 55 56 57 58 60 61 62 62 63 64 64 63 63 64 65 65 65 65 65 64 64 64 63 63 63 62 61 61 60 59 58 58 57 57 57 56
55 55 56 57 59 60 61 62 62 63 64 65 65 65 65 65 66 66 65 65 64 64 64 64 63 62 62 62 62 61 60 58 56 56 55 55 54 54
56 56 57 59 60 61 62 63 64 65 65 66 66 66 66 66 66 65 65 64 63 63 63 62 62 62 62 62 61 60 58 56 55 53 53 52 51 51
56 57 59 60 61 62 63 64 65 66 67 68 68 67 66 65 66 65 64 64 63 62 62 61 61 60 60 60 59 57 55 54 52 51 51 50 49 49
57 58 60 61 62 63 64 65 66 66 67 68 68 66 66 65 65 64 63 63 62 61 61 59 58 58 57 57 56 54 53 51 50 49 48 48 48 48
58 59 61 62 63 64 65 66 66 66 66 66 65 65 64 64 63 63 62 62 60 58 58 58 56 55 54 53 52 51 50 49 48 47 47 47 47 46
58 59 60 62 62 63 64 64 64 63 63 62 62 62 61 61 60 60 60 59 58 57 55 55 54 53 51 49 49 48 47 47 46 46 45 45 45 45
58 58 59 61 61 62 62 62 62 61 60 59 58 58 57 57 57 57 57 56 55 54 52 51 50 48 47 46 45 45 44 44 44 43 43 42 42 42
57 58 59 60 60 60 60 59 59 59 57 56 55 54 53 53 53 53 53 52 51 50 48 47 46 45 44 43 41 41 41 41 40 40 40 39 39 39
58 58 58 58 58 57 56 56 56 55 54 53 52 51 51 51 50 50 49 48 47 45 44 44 43 42 40 39 38 37 37 37 37 37 36 36 37 37
57 57 56 56 55 54 53 53 52 52 51 50 50 49 48 47 47 46 45 44 42 41 40 40 39 38 36 35 34 33 34 34 34 33 33 33 33 34
55 54 53 52 51 51 50 49 49 49 48 47 46 45 44 44 42 41 40 39 38 36 35 34 34 33 32 32 31 31 31 31 30 30 30 30 30 31
52 51 50 49 48 47 46 46 46 46 45 44 43 43 41 40 38 37 36 35 33 32 31 30 30 29 29 29 29 29 29 28 28 28 28 28 28 29
50 49 47 46 45 44 44 43 43 42 42 41 41 39 38 36 34 33 32 31 29 28 28 28 28 28 27 27 27 27 27 26 26 27 27 27 27 27
47 46 44 44 43 42 41 41 40 39 39 39 37 35 33 31 30 29 28 27 26 25 25 25 26 25 25 24 24 25 25 25 25 25 25 24 24 25
45 44 43 42 41 40 39 39 38 37 36 35 32 31 29 28 27 26 25 24 23 23 23 24 24 24 23 23 22 23 23 23 23 23 23 23 23 24
42 41 41 40 39 38 37 36 35 34 33 31 29 28 27 25 24 23 23 22 22 22 22 22 23 22 22 21 20 21 21 21 21 21 22 22 23 23
39 39 38 37 37 36 35 34 32 31 29 28 26 25 24 23 22 22 21 21 21 21 21 21 20 20 19 19 19 19 19 19 19 20 21 21 21 21

GEFSNE_500_meanwind_174.txt.gz
Wind_Speed
46 46 47 48 48 48 49 50 51 51 50 51 52 52 53 54 55 56 56 57 58 58 59 59 59 59 60 60 60 60 60 60 60 60 59 59 58 58
48 49 49 50 50 50 51 51 52 53 53 53 54 55 55 56 57 57 58 59 60 60 61 62 62 62 62 63 62 63 62 62 62 62 61 61 60 60
49 50 50 51 51 52 52 53 54 55 54 54 55 56 57 59 59 60 61 62 63 63 63 64 64 64 65 65 65 65 65 65 64 63 63 62 62 61
51 52 52 53 53 54 55 55 56 56 57 57 57 59 60 61 62 63 64 65 65 65 66 66 66 66 66 66 67 66 66 66 65 65 64 64 63 62
53 53 54 54 55 55 56 56 57 58 59 59 60 61 62 64 65 65 66 67 67 67 67 68 68 68 68 68 68 68 67 67 66 66 65 63 62 61
54 55 55 56 56 57 57 57 58 59 60 61 62 62 64 65 67 68 68 68 69 70 70 69 69 69 69 69 68 68 67 67 66 64 63 62 61 60
54 55 55 56 56 57 57 58 59 60 61 62 63 64 65 66 67 68 69 69 69 69 70 69 69 69 68 68 67 66 65 64 63 62 61 61 60 59
54 54 55 56 57 57 58 60 61 61 62 63 64 65 65 66 67 68 69 69 68 67 67 67 68 67 66 66 65 64 63 62 62 61 60 60 59 58
54 55 55 56 57 58 59 60 61 62 63 63 64 64 65 66 67 67 67 66 66 65 66 64 64 63 63 63 63 63 62 62 61 60 59 59 58 57
53 54 55 56 57 58 58 59 60 61 63 63 64 64 64 65 66 66 66 66 64 63 63 62 60 60 60 60 60 60 60 59 59 58 57 57 55 54
54 55 55 56 57 58 59 59 60 60 62 63 64 64 64 65 65 65 64 64 62 60 60 60 58 58 57 57 57 57 56 56 55 54 53 52 50 50
54 54 55 56 57 58 59 59 59 59 60 61 62 63 63 63 64 64 63 62 61 59 57 58 56 56 55 53 53 52 51 51 50 49 48 47 46 46
54 54 55 56 56 57 58 59 59 59 60 60 60 60 60 61 61 60 59 58 57 56 54 54 53 53 53 51 49 48 48 46 45 44 43 43 42 42
54 54 54 55 56 57 58 58 58 59 58 58 58 57 57 57 56 55 54 53 53 52 51 51 51 50 49 47 44 43 42 41 41 40 40 39 39 39
53 54 54 55 56 56 57 57 57 56 56 55 55 54 54 53 53 51 51 50 49 49 49 48 48 46 45 42 40 38 36 36 36 37 37 37 36 35
53 54 54 55 56 56 56 55 55 55 54 54 53 52 51 50 49 48 48 48 47 46 46 45 43 42 40 37 35 33 32 32 32 32 32 32 32 32
54 54 54 54 55 55 54 54 53 53 52 51 50 48 48 47 47 46 46 45 44 43 41 40 38 37 35 33 31 30 29 28 28 28 28 28 28 29
54 53 53 54 53 53 52 51 50 49 49 48 47 46 45 45 44 43 43 42 41 40 38 36 35 33 31 30 29 28 27 26 26 26 26 25 25 25
52 52 52 52 51 50 49 48 46 46 45 45 45 44 44 43 42 41 41 40 39 37 35 34 32 30 28 26 25 26 25 25 24 24 24 23 23 23
51 50 50 50 49 47 46 44 43 43 43 43 43 42 41 40 39 39 39 37 36 34 32 30 29 27 26 24 23 23 23 23 22 22 22 22 21 22
49 49 48 47 46 45 43 42 42 42 42 41 40 40 38 37 37 37 36 34 32 30 28 26 25 24 23 22 20 20 21 21 21 20 20 20 20 20
46 46 45 44 43 41 40 40 40 40 39 38 38 36 35 35 34 33 31 29 28 27 25 23 22 21 21 20 20 19 20 20 20 19 19 19 18 18
44 43 41 40 39 38 38 37 37 37 37 36 35 34 33 32 30 29 28 26 25 23 21 20 20 20 20 20 19 19 18 17 17 17 17 17 17 17